"2009-09-08 00:00:00",1221409,1.022,10.42,12.56,0.448,21.9,109.768,24.3,25.36,23.31,0,111.1,13.14,25.14,332.4
"2009-09-08 00:00:30",1221410,1.365,18.77,6.143,0.314,21.88,109.772,24.31,25.35,23.37,0,111.1,13.14,25.15,340.8
"2009-09-08 00:01:00",1221411,1.51,20.82,7.569,0.369,21.85,109.7729,24.31,25.34,23.36,0,111.1,13.14,25.15,342.8
"2009-09-08 00:01:30",1221412,2.22,24.66,5.669,0.338,21.77,109.7727,24.31,25.33,23.37,0,111.1,13.14,25.15,346.7
"2009-09-08 00:02:00",1221413,2.679,31.01,1.234,0.107,21.74,109.7663,24.29,25.32,23.5,0,111.1,13.14,25.13,353.0
"2009-09-08 00:02:30",1221414,2.594,29.39,1.614,0.113,21.74,109.7525,24.26,25.31,23.57,0,111.1,13.14,25.10,351.4
"2009-09-08 00:03:00",1221415,2.54,30.67,1.009,0.081,21.71,109.7469,24.24,25.29,23.54,0,111.1,13.14,25.08,352.7
"2009-09-08 00:03:30",1221416,2.409,29.35,1.425,0.078,21.74,109.7408,24.23,25.29,23.54,0,111.1,13.14,25.07,351.4
"2009-09-08 00:04:00",1221417,2.279,30.45,0.696,0.085,21.77,109.7405,24.23,25.27,23.53,0,111.1,13.15,25.06,352.5
"2009-09-08 00:04:30",1221418,2.557,30.93,1.707,0.127,21.74,109.7405,24.23,25.28,23.58,0,111.1,13.14,25.06,352.9
"2009-09-08 00:05:00",1221419,2.229,16.91,7.664,0.351,21.94,109.7405,24.23,25.26,23.5,0,111.1,13.15,25.06,338.9
"2009-09-08 00:05:30",1221420,2.255,4.068,5.572,0.262,22.04,109.7405,24.23,25.24,23.05,0,111.1,13.14,25.06,326.1
"2009-09-08 00:06:00",1221421,2.475,16.63,9.37,0.223,21.89,109.7365,24.22,25.24,23.09,0,111.1,13.14,25.05,338.6
"2009-09-08 00:06:30",1221422,1.775,6.766,8.33,0.484,21.98,109.7247,24.19,25.24,23.14,0,111.1,13.14,25.02,328.8
"2009-09-08 00:07:00",1221423,1.465,13.66,10.65,0.183,21.99,109.7158,24.16,25.22,22.97,0,111.1,13.14,25.00,335.7
"2009-09-08 00:07:30",1221424,1.305,27.57,2.718,0.17,21.91,109.7141,24.16,25.22,23.04,0,111.1,13.14,25.00,349.6
"2009-09-08 00:08:00",1221425,1.604,9.29,12.69,0.31,21.96,109.7121,24.15,25.2,23.13,0,111.1,13.14,24.99,331.3
"2009-09-08 00:08:30",1221426,1.772,2.027,10.75,0.181,21.98,109.7073,24.14,25.2,22.99,0,111.1,13.14,24.98,324.0
"2009-09-08 00:09:00",1221427,1.977,12.07,7.909,0.215,21.95,109.7068,24.14,25.21,23.01,0,111.1,13.14,24.98,334.1
"2009-09-08 00:09:30",1221428,1.685,21.94,7.766,0.366,21.95,109.7068,24.14,25.2,23.05,0,111.1,13.14,24.98,343.9
"2009-09-08 00:10:00",1221429,1.622,30.51,5.914,0.245,21.94,109.7068,24.14,25.2,23.06,0,111.1,13.14,24.98,352.5
"2009-09-08 00:10:30",1221430,1.632,22.91,4.588,0.175,21.97,109.7068,24.14,25.2,23.06,0,111.1,13.14,24.98,344.9
"2009-09-08 00:11:00",1221431,1.497,29.68,4.943,0.198,21.92,109.7071,24.14,25.19,23,0,111.1,13.15,24.98,351.7
"2009-09-08 00:11:30",1221432,1.606,27.92,2.763,0.134,21.84,109.7068,24.14,25.18,23.19,0,111.1,13.15,24.98,349.9
"2009-09-08 00:12:00",1221433,1.815,26.67,2.985,0.163,21.89,109.7083,24.15,25.2,23.24,0,111.1,13.15,24.98,348.7
"2009-09-08 00:12:30",1221434,1.639,27.53,2.45,0.188,21.9,109.7105,24.15,25.18,23.18,0,111.1,13.15,24.99,349.5
"2009-09-08 00:13:00",1221435,1.89,27.27,2.819,0.208,21.95,109.7151,24.16,25.2,23.12,0,111.1,13.15,25.00,349.3
"2009-09-08 00:13:30",1221436,0.985,7.597,11.87,0.569,21.93,109.7179,24.17,25.18,23.04,0,111.1,13.15,25.01,329.6
"2009-09-08 00:14:00",1221437,1.671,9.84,11.42,0.263,21.95,109.7246,24.19,25.18,23,0,111.1,13.15,25.02,331.8
"2009-09-08 00:14:30",1221438,1.478,4.918,6.323,0.296,21.96,109.7287,24.2,25.19,22.94,0,111.1,13.15,25.03,326.9
"2009-09-08 00:15:00",1221439,0.827,10.15,14.39,0.383,21.88,109.7308,24.2,25.18,22.93,0,111.1,13.15,25.04,332.1
"2009-09-08 00:15:30",1221440,1.626,16.65,5.87,0.304,21.92,109.7327,24.21,25.19,22.99,0,111.1,13.15,25.04,338.6
"2009-09-08 00:16:00",1221441,1.88,16.5,4.021,0.307,21.85,109.7342,24.21,25.19,23.05,0,111.1,13.15,25.05,338.5
"2009-09-08 00:16:30",1221442,1.171,10.06,7.101,0.387,21.86,109.7345,24.21,25.18,23.12,0,111.1,13.15,25.05,332.1
"2009-09-08 00:17:00",1221443,1.27,0.085,5.918,0.289,21.79,109.7345,24.21,25.17,23.17,0,111.1,13.15,25.05,322.1
"2009-09-08 00:17:30",1221444,1.042,1.604,6.569,0.284,21.81,109.7348,24.21,25.19,23.19,0,111.1,13.15,25.05,323.6
"2009-09-08 00:18:00",1221445,1.31,359.2,3.439,0.173,21.81,109.7348,24.21,25.18,23.16,0,111.1,13.15,25.05,321.2
"2009-09-08 00:18:30",1221446,1.398,357.1,3.841,0.255,21.81,109.7351,24.21,25.18,23.14,0,111.1,13.15,25.05,319.1
"2009-09-08 00:19:00",1221447,1.522,354.9,4.87,0.373,21.83,109.7357,24.22,25.17,23.09,0,111.1,13.15,25.05,316.9
"2009-09-08 00:19:30",1221448,1.288,0.623,7.243,0.235,21.79,109.7367,24.22,25.19,23.11,0,111.1,13.15,25.05,322.6
"2009-09-08 00:20:00",1221449,1.022,10.79,6.166,0.205,21.74,109.7391,24.22,25.19,23.19,0,111.1,13.15,25.06,332.8
"2009-09-08 00:20:30",1221450,1.11,11.98,5.669,0.196,21.75,109.7404,24.23,25.18,23.18,0,111.1,13.15,25.06,334.0
"2009-09-08 00:21:00",1221451,1.399,9.51,7.428,0.14,21.77,109.7425,24.23,25.19,23.16,0,111.1,13.15,25.07,331.5
"2009-09-08 00:21:30",1221452,1.374,11.61,5.337,0.199,21.75,109.7408,24.23,25.19,23.2,0,111.1,13.15,25.07,333.6
"2009-09-08 00:22:00",1221453,1.252,11.55,4.004,0.184,21.75,109.7398,24.23,25.19,23.22,0,111.1,13.15,25.06,333.5
"2009-09-08 00:22:30",1221454,1.029,9.52,5.685,0.208,21.74,109.7407,24.23,25.19,23.22,0,111,13.15,25.06,331.5
"2009-09-08 00:23:00",1221455,1.093,12.76,5.184,0.253,21.77,109.7381,24.22,25.18,23.22,0,111,13.15,25.06,334.8
"2009-09-08 00:23:30",1221456,0.86,9.28,8.61,0.281,21.79,109.7373,24.22,25.19,23.18,0,111,13.15,25.06,331.3
"2009-09-08 00:24:00",1221457,0.931,357.7,12.44,0.457,21.81,109.7348,24.21,25.2,23.14,0,111.1,13.15,25.05,319.7
"2009-09-08 00:24:30",1221458,1.237,352.9,11.05,0.548,21.81,109.7331,24.21,25.2,23.07,0,111.1,13.15,25.05,314.9
"2009-09-08 00:25:00",1221459,1.299,353.3,6.759,0.277,21.84,109.7334,24.21,25.19,23.05,0,111,13.15,25.05,315.3
"2009-09-08 00:25:30",1221460,1.887,4.964,6.257,0.257,21.87,109.7252,24.19,25.19,23,0,111,13.15,25.02,327.0
"2009-09-08 00:26:00",1221461,1.499,2.776,10.65,0.551,21.89,109.7233,24.18,25.2,22.96,0,111,13.15,25.02,324.8
"2009-09-08 00:26:30",1221462,2.364,18.73,12.41,0.691,21.63,109.7218,24.18,25.2,23.07,0,111,13.15,25.02,340.7
"2009-09-08 00:27:00",1221463,2.379,20.1,10.52,0.71,21.57,109.7188,24.17,25.19,23.76,0,111.1,13.15,25.01,342.1
"2009-09-08 00:27:30",1221464,2.761,19.49,4.129,0.45,21.67,109.7162,24.17,25.19,23.5,0,111,13.15,25.00,341.5
"2009-09-08 00:28:00",1221465,3.392,26.46,2.99,0.247,21.49,109.714,24.16,25.18,23.65,0,111,13.15,25.00,348.5
"2009-09-08 00:28:30",1221466,3.191,21.77,5.802,0.526,21.54,109.71,24.15,25.19,23.85,0,111,13.15,24.99,343.8
"2009-09-08 00:29:00",1221467,4.009,20.49,6.136,0.51,21.38,109.71,24.15,25.19,23.5,0,111,13.15,24.99,342.5
"2009-09-08 00:29:30",1221468,4.602,22.15,2.445,0.182,21.2,109.71,24.15,25.19,24.1,0,111,13.15,24.99,344.1
"2009-09-08 00:30:00",1221469,4.586,17.08,4.316,0.48,21.28,109.71,24.15,25.17,24.48,0,111,13.16,24.99,339.1
"2009-09-08 00:30:30",1221470,3.872,15.95,3.827,0.601,21.25,109.7092,24.15,25.16,24.48,0,111,13.16,24.98,338.0
"2009-09-08 00:31:00",1221471,3.983,14.8,5.299,0.644,21.2,109.7008,24.13,25.17,25,0,111,13.16,24.96,336.8
"2009-09-08 00:31:30",1221472,3.349,13.41,4.327,0.496,21.25,109.6895,24.1,25.13,25.11,0,111,13.16,24.93,335.4
"2009-09-08 00:32:00",1221473,2.898,8.96,4.959,0.421,21.13,109.6811,24.08,25.14,25.68,0,111,13.16,24.91,331.0
"2009-09-08 00:32:30",1221474,2.93,8.43,3.515,0.258,21.24,109.6763,24.06,25.12,25.5,0,111,13.16,24.90,330.4
"2009-09-08 00:33:00",1221475,3.271,5.254,6.306,0.765,21.19,109.6767,24.06,25.11,25.62,0,111,13.16,24.90,327.3
"2009-09-08 00:33:30",1221476,3.463,2.543,3.914,0.396,21.17,109.6555,24.01,25.09,25.96,0,111,13.16,24.85,324.5
"2009-09-08 00:34:00",1221477,3.622,1.617,3.898,0.454,21.18,109.6429,23.98,25.07,26.13,0,111,13.16,24.81,323.6
"2009-09-08 00:34:30",1221478,3.797,1.004,2.734,0.317,21.17,109.6401,23.97,25.05,26.07,0,111,13.16,24.81,323.0
"2009-09-08 00:35:00",1221479,4.155,1.747,2.979,0.476,21.17,109.6183,23.91,25.03,26.13,0,111,13.16,24.75,323.7
"2009-09-08 00:35:30",1221480,4.903,357,2.664,0.52,21.17,109.6098,23.89,25.01,26.1,0,111,13.16,24.73,319.0
"2009-09-08 00:36:00",1221481,6.298,353.5,1.642,0.641,21.18,109.5866,23.83,24.96,25.91,0,111,13.16,24.67,315.5
"2009-09-08 00:36:30",1221482,6.712,352.3,1.878,0.448,21.22,109.5763,23.81,24.93,25.59,0,111,13.16,24.64,314.3
"2009-09-08 00:37:00",1221483,5.27,1.441,4.465,0.878,21.2,109.5577,23.76,24.9,25.82,0,111,13.16,24.59,323.4
"2009-09-08 00:37:30",1221484,5.009,356.3,2.669,1.028,21.22,109.5455,23.73,24.88,25.74,0,111,13.16,24.56,318.3
"2009-09-08 00:38:00",1221485,5.912,355.4,1.84,0.465,21.3,109.5328,23.69,24.83,25.24,0,111,13.16,24.53,317.4
"2009-09-08 00:38:30",1221486,4.767,358.9,3.089,0.685,21.26,109.5135,23.64,24.8,25.07,0,111,13.16,24.48,320.9
"2009-09-08 00:39:00",1221487,4.612,359,4.142,0.395,21.24,109.5127,23.64,24.76,25.26,0,111,13.16,24.48,321.0
"2009-09-08 00:39:30",1221488,4.378,358.7,3.839,0.638,21.24,109.5045,23.62,24.74,25.5,0,111,13.16,24.46,320.7
"2009-09-08 00:40:00",1221489,3.796,359.7,2.545,0.565,21.23,109.4882,23.58,24.71,25.54,0,111,13.16,24.41,321.7
"2009-09-08 00:40:30",1221490,4.632,2.776,4.671,0.708,21.22,109.4857,23.57,24.69,25.75,0,111,13.16,24.41,324.8
"2009-09-08 00:41:00",1221491,4.426,357.8,2.852,0.621,21.22,109.486,23.57,24.67,25.42,0,111,13.15,24.41,319.8
"2009-09-08 00:41:30",1221492,6.226,352.9,1.998,0.623,21.22,109.4863,23.57,24.65,24.88,0,111,13.15,24.41,314.9
"2009-09-08 00:42:00",1221493,6.16,352.7,3.223,1.101,21.23,109.4871,23.58,24.64,24.89,0,111,13.15,24.41,314.7
"2009-09-08 00:42:30",1221494,5.117,356.7,2.968,0.864,21.22,109.4748,23.55,24.61,24.96,0,111,13.15,24.38,318.7
"2009-09-08 00:43:00",1221495,5.095,357.6,3.957,1.067,21.19,109.4753,23.55,24.6,24.95,0,111,13.15,24.38,319.6
"2009-09-08 00:43:30",1221496,5.166,357.4,3.403,0.77,21.2,109.4761,23.55,24.58,24.87,0,111,13.15,24.38,319.4
"2009-09-08 00:44:00",1221497,5.061,357.2,3.457,0.797,21.23,109.4753,23.55,24.58,24.79,0,111,13.15,24.38,319.2
"2009-09-08 00:44:30",1221498,5.567,354.5,2.479,0.763,21.21,109.4753,23.55,24.56,24.68,0,111,13.16,24.38,316.5
"2009-09-08 00:45:00",1221499,6.692,350.8,1.631,0.316,21.15,109.4759,23.55,24.56,24.56,0,111,13.16,24.38,312.8
"2009-09-08 00:45:30",1221500,5.982,353.6,2.565,0.733,21.13,109.4783,23.55,24.56,24.5,0,111,13.16,24.39,315.6
"2009-09-08 00:46:00",1221501,4.815,357.2,2.693,0.546,21.18,109.4799,23.56,24.54,24.54,0,111,13.17,24.39,319.2
"2009-09-08 00:46:30",1221502,5.798,353.9,3.003,0.929,21.18,109.4868,23.58,24.55,24.53,0,111,13.17,24.41,315.9
"2009-09-08 00:47:00",1221503,5.413,354.5,3.852,0.987,21.18,109.4924,23.59,24.56,24.47,0,111,13.17,24.42,316.5
"2009-09-08 00:47:30",1221504,4.025,0.333,3.806,0.622,21.18,109.5009,23.61,24.55,24.54,0,111,13.17,24.45,322.3
"2009-09-08 00:48:00",1221505,4.183,1.07,4.205,0.344,21.22,109.5017,23.61,24.56,24.83,0,111,13.17,24.45,323.1
"2009-09-08 00:48:30",1221506,4.606,5.188,3.807,0.627,21.25,109.5017,23.61,24.57,24.89,0,111,13.17,24.45,327.2
"2009-09-08 00:49:00",1221507,5.455,356.3,5.462,0.969,21.22,109.5017,23.61,24.56,24.58,0,111,13.17,24.45,318.3
"2009-09-08 00:49:30",1221508,5.819,353.4,2.316,0.847,21.29,109.5017,23.61,24.56,24.48,0,111,13.17,24.45,315.4
"2009-09-08 00:50:00",1221509,5.253,354,3.543,0.906,21.32,109.5017,23.61,24.58,24.5,0,111,13.17,24.45,316.0
"2009-09-08 00:50:30",1221510,5.873,353,4.713,0.69,21.34,109.5031,23.62,24.59,24.52,0,111,13.17,24.45,315.0
"2009-09-08 00:51:00",1221511,4.545,357.2,2.847,0.643,21.4,109.5048,23.62,24.59,24.66,0,111,13.17,24.46,319.2
"2009-09-08 00:51:30",1221512,4.327,359.2,2.341,0.464,21.38,109.5085,23.63,24.61,24.5,0,111,13.17,24.47,321.2
"2009-09-08 00:52:00",1221513,4.062,6.513,4.586,0.423,21.36,109.5117,23.64,24.6,24.61,0,111,13.17,24.47,328.5
"2009-09-08 00:52:30",1221514,3.37,1.518,3.474,0.5,21.39,109.5155,23.65,24.61,24.49,0,111,13.17,24.48,323.5
"2009-09-08 00:53:00",1221515,3.96,0.198,3.038,0.37,21.38,109.5137,23.65,24.62,24.25,0,111,13.17,24.48,322.2
"2009-09-08 00:53:30",1221516,4.22,358,4.524,1.031,21.43,109.5146,23.65,24.6,24.17,0,111,13.17,24.48,320.0
"2009-09-08 00:54:00",1221517,4.742,355.9,2.653,0.966,21.43,109.5144,23.65,24.62,24.06,0,111,13.17,24.48,317.9
"2009-09-08 00:54:30",1221518,3.95,3.463,5.909,0.663,21.49,109.5142,23.65,24.61,24.2,0,111,13.17,24.48,325.5
"2009-09-08 00:55:00",1221519,3.76,3.774,4.713,0.62,21.51,109.5159,23.65,24.61,24.37,0,111,13.17,24.49,325.8
"2009-09-08 00:55:30",1221520,5.166,354.1,5.578,0.809,21.52,109.5165,23.65,24.61,24.37,0,111,13.17,24.49,316.1
"2009-09-08 00:56:00",1221521,4.724,358,7.584,0.848,21.54,109.5161,23.65,24.6,24.32,0,111,13.17,24.49,320.0
"2009-09-08 00:56:30",1221522,3.515,4.506,5.834,1.172,21.51,109.5171,23.65,24.62,24.14,0,111,13.17,24.49,326.5
"2009-09-08 00:57:00",1221523,3.447,11.25,6.687,0.486,21.55,109.5174,23.65,24.61,24.15,0,111,13.17,24.49,333.2
"2009-09-08 00:57:30",1221524,3.3,11,5.376,0.787,21.64,109.5171,23.65,24.63,24.12,0,111,13.17,24.49,333.0
"2009-09-08 00:58:00",1221525,3.206,12.02,4.24,0.544,21.58,109.5174,23.65,24.62,24.13,0,111,13.16,24.49,334.0
"2009-09-08 00:58:30",1221526,3.885,16.01,2.123,0.528,21.6,109.5174,23.65,24.64,24.11,0,111,13.16,24.49,338.0
"2009-09-08 00:59:00",1221527,4.01,11.33,3.802,0.445,21.58,109.5171,23.65,24.63,24.08,0,111,13.16,24.49,333.3
"2009-09-08 00:59:30",1221528,4.837,11.05,3.332,1.219,21.55,109.5174,23.65,24.63,24.06,0,111,13.16,24.49,333.0
"2009-09-08 01:00:00",1221529,2.909,9.79,3.708,0.363,21.52,109.5157,23.65,24.62,24,0,111,13.16,24.48,331.8
"2009-09-08 01:00:30",1221530,3.646,13.47,4.015,0.361,21.48,109.5149,23.65,24.63,23.99,0,111,13.16,24.48,335.5
"2009-09-08 01:01:00",1221531,3.148,9.57,4.193,0.298,21.48,109.5135,23.64,24.63,23.97,0,111,13.16,24.48,331.6
"2009-09-08 01:01:30",1221532,3.887,14.53,2.408,0.329,21.47,109.5115,23.64,24.63,23.97,0,111,13.17,24.47,336.5
"2009-09-08 01:02:00",1221533,4.211,16.18,2.431,0.48,21.47,109.5112,23.64,24.64,23.98,0,111,13.17,24.47,338.2
"2009-09-08 01:02:30",1221534,4.418,11.97,4.231,1.039,21.44,109.5112,23.64,24.64,23.99,0,111,13.17,24.47,334.0
"2009-09-08 01:03:00",1221535,3.654,9.5,5.542,0.511,21.44,109.511,23.64,24.64,23.95,0,111,13.17,24.47,331.5
"2009-09-08 01:03:30",1221536,3.604,13.84,2.125,0.262,21.48,109.511,23.64,24.62,23.96,0,111,13.17,24.47,335.8
"2009-09-08 01:04:00",1221537,3.879,16.06,1.854,0.294,21.48,109.511,23.64,24.65,23.99,0,111,13.17,24.47,338.1
"2009-09-08 01:04:30",1221538,4.28,16.98,2.289,0.339,21.44,109.511,23.64,24.64,24.02,0,111,13.17,24.47,339.0
"2009-09-08 01:05:00",1221539,4.587,18.38,1.028,0.256,21.44,109.511,23.64,24.63,24.01,0,111,13.17,24.47,340.4
"2009-09-08 01:05:30",1221540,4.851,20.37,2.401,0.468,21.5,109.511,23.64,24.63,24.05,0,111,13.17,24.47,342.4
"2009-09-08 01:06:00",1221541,4.124,17.59,1.854,0.307,21.49,109.511,23.64,24.63,24.06,0,111,13.17,24.47,339.6
"2009-09-08 01:06:30",1221542,3.88,16.18,3.449,0.544,21.52,109.511,23.64,24.61,24.03,0,111,13.17,24.47,338.2
"2009-09-08 01:07:00",1221543,4.09,15.86,3.223,0.557,21.57,109.511,23.64,24.64,24.06,0,111,13.17,24.47,337.9
"2009-09-08 01:07:30",1221544,4.731,19.48,2.549,0.313,21.57,109.511,23.64,24.63,24.04,0,111,13.17,24.47,341.5
"2009-09-08 01:08:00",1221545,4.068,16.58,3.607,0.83,21.52,109.511,23.64,24.64,24.02,0,111,13.17,24.47,338.6
"2009-09-08 01:08:30",1221546,3.083,14.8,4.432,0.644,21.56,109.511,23.64,24.63,23.99,0,111,13.17,24.47,336.8
"2009-09-08 01:09:00",1221547,3.12,13.65,4.586,0.497,21.55,109.511,23.64,24.64,24,0,111,13.17,24.47,335.6
"2009-09-08 01:09:30",1221548,3.971,16.42,3.51,0.625,21.61,109.511,23.64,24.63,23.95,0,111,13.17,24.47,338.4
"2009-09-08 01:10:00",1221549,3.753,16.86,2.253,0.337,21.56,109.511,23.64,24.64,23.93,0,111,13.17,24.47,338.9
"2009-09-08 01:10:30",1221550,4.314,18.15,2.053,0.58,21.54,109.511,23.64,24.65,23.87,0,111,13.17,24.47,340.1
"2009-09-08 01:11:00",1221551,4.552,18.49,1.365,0.287,21.53,109.511,23.64,24.66,23.89,0,111,13.17,24.47,340.5
"2009-09-08 01:11:30",1221552,4.216,17.98,1.777,0.404,21.53,109.511,23.64,24.64,23.86,0,111,13.18,24.47,340.0
"2009-09-08 01:12:00",1221553,4.188,18.54,2.887,0.606,21.55,109.511,23.64,24.63,23.89,0,111,13.17,24.47,340.5
"2009-09-08 01:12:30",1221554,3.959,18.14,2.014,0.578,21.56,109.511,23.64,24.64,23.87,0,111,13.17,24.47,340.1
"2009-09-08 01:13:00",1221555,3.476,15.51,4.154,0.811,21.53,109.511,23.64,24.65,23.84,0,111,13.18,24.47,337.5
"2009-09-08 01:13:30",1221556,3.921,17.7,2.209,0.427,21.58,109.511,23.64,24.64,23.85,0,111,13.17,24.47,339.7
"2009-09-08 01:14:00",1221557,3.08,15.34,3.002,0.516,21.53,109.511,23.64,24.64,23.81,0,111,13.17,24.47,337.3
"2009-09-08 01:14:30",1221558,3.066,14.54,2.738,0.61,21.55,109.511,23.64,24.64,23.81,0,111,13.17,24.47,336.5
"2009-09-08 01:15:00",1221559,3.465,15.63,1.998,0.387,21.56,109.511,23.64,24.64,23.82,0,111,13.17,24.47,337.6
"2009-09-08 01:15:30",1221560,3.42,15.9,1.998,0.28,21.56,109.511,23.64,24.64,23.85,0,111,13.17,24.47,337.9
"2009-09-08 01:16:00",1221561,3.66,17.02,1.64,0.359,21.58,109.509,23.63,24.63,23.86,0,111,13.17,24.47,339.0
"2009-09-08 01:16:30",1221562,4.415,18.69,1.397,0.358,21.56,109.5053,23.62,24.63,23.88,0,111,13.17,24.46,340.7
"2009-09-08 01:17:00",1221563,4.552,19.23,1.023,0.177,21.55,109.4966,23.6,24.63,23.95,0,111,13.17,24.44,341.2
"2009-09-08 01:17:30",1221564,4.26,18.37,0.984,0.154,21.54,109.4876,23.58,24.63,23.88,0,111,13.17,24.41,340.4
"2009-09-08 01:18:00",1221565,4.268,20.17,1.454,0.168,21.55,109.4834,23.57,24.63,23.99,0,111,13.17,24.40,342.2
"2009-09-08 01:18:30",1221566,4.308,20.13,1.19,0.159,21.55,109.4789,23.56,24.61,24.05,0,111,13.17,24.39,342.1
"2009-09-08 01:19:00",1221567,4.298,20.58,1.494,0.18,21.55,109.4775,23.55,24.61,24.15,0,111,13.17,24.39,342.6
"2009-09-08 01:19:30",1221568,4.283,22.06,1.81,0.139,21.53,109.4772,23.55,24.61,24.16,0,111,13.18,24.39,344.1
"2009-09-08 01:20:00",1221569,4.333,22.94,2.588,0.25,21.61,109.4772,23.55,24.59,24.18,0,111,13.18,24.39,344.9
"2009-09-08 01:20:30",1221570,4.246,21.89,1.404,0.202,21.6,109.4772,23.55,24.6,24.24,0,111,13.18,24.39,343.9
"2009-09-08 01:21:00",1221571,4.347,20.24,1.093,0.158,21.59,109.4772,23.55,24.6,24.24,0,111,13.18,24.39,342.2
"2009-09-08 01:21:30",1221572,4.17,21.34,1.32,0.149,21.57,109.4772,23.55,24.59,24.18,0,111,13.18,24.39,343.3
"2009-09-08 01:22:00",1221573,4.102,22.73,1.077,0.191,21.58,109.4742,23.54,24.59,24.16,0,111,13.18,24.38,344.7
"2009-09-08 01:22:30",1221574,3.983,24.88,1.639,0.198,21.66,109.461,23.51,24.56,24.14,0,111,13.18,24.34,346.9
"2009-09-08 01:23:00",1221575,4.1,23.54,2.289,0.198,21.67,109.452,23.49,24.57,24.11,0,111,13.18,24.32,345.5
"2009-09-08 01:23:30",1221576,4.095,22.72,1.785,0.209,21.65,109.4478,23.48,24.55,24.11,0,111,13.18,24.31,344.7
"2009-09-08 01:24:00",1221577,4.456,27.38,1.298,0.258,21.7,109.4459,23.47,24.53,24.13,0,111,13.18,24.30,349.4
"2009-09-08 01:24:30",1221578,4.271,26.62,1.559,0.211,21.67,109.445,23.47,24.54,24.08,0,111,13.18,24.30,348.6
"2009-09-08 01:25:00",1221579,4.216,26.53,1.617,0.249,21.67,109.446,23.47,24.51,24.14,0,111,13.18,24.31,348.5
"2009-09-08 01:25:30",1221580,4.169,26.54,2.048,0.213,21.62,109.4475,23.48,24.5,24.17,0,111,13.18,24.31,348.5
"2009-09-08 01:26:00",1221581,4.067,27.18,2.55,0.272,21.63,109.4447,23.47,24.51,24.12,0,111,13.18,24.30,349.2
"2009-09-08 01:26:30",1221582,4.039,29.32,1.199,0.29,21.66,109.4466,23.47,24.5,24.34,0,111,13.19,24.31,351.3
"2009-09-08 01:27:00",1221583,3.914,29.05,1.148,0.252,21.66,109.445,23.47,24.5,24.34,0,111,13.18,24.30,351.0
"2009-09-08 01:27:30",1221584,4.228,30.1,1.232,0.251,21.68,109.4426,23.46,24.5,24.36,0,111,13.19,24.30,352.1
"2009-09-08 01:28:00",1221585,3.619,28.59,1.387,0.249,21.67,109.435,23.44,24.48,24.33,0,111,13.19,24.28,350.6
"2009-09-08 01:28:30",1221586,3.855,26.02,1.494,0.185,21.65,109.4295,23.43,24.48,24.19,0,111,13.19,24.26,348.0
"2009-09-08 01:29:00",1221587,3.869,27.99,1.03,0.262,21.66,109.427,23.42,24.47,24.24,0,111,13.19,24.26,350.0
"2009-09-08 01:29:30",1221588,3.751,28.22,1.538,0.17,21.62,109.4252,23.42,24.47,24.25,0,111,13.19,24.25,350.2
"2009-09-08 01:30:00",1221589,3.807,28,1.603,0.249,21.59,109.4279,23.42,24.48,24.25,0,111,13.19,24.26,350.0
"2009-09-08 01:30:30",1221590,3.965,25.68,1.189,0.149,21.58,109.4297,23.43,24.45,24.12,0,111,13.18,24.26,347.7
"2009-09-08 01:31:00",1221591,4.005,25.59,1.186,0.18,21.61,109.4293,23.43,24.45,24.12,0,111,13.18,24.26,347.6
"2009-09-08 01:31:30",1221592,4.05,26.61,1.219,0.215,21.59,109.4244,23.42,24.45,24.12,0,111,13.18,24.25,348.6
"2009-09-08 01:32:00",1221593,3.956,27.39,1.263,0.153,21.61,109.4258,23.42,24.45,24.14,0,111,13.17,24.25,349.4
"2009-09-08 01:32:30",1221594,4.084,27.72,1.155,0.187,21.63,109.4282,23.43,24.44,24.2,0,111,13.17,24.26,349.7
"2009-09-08 01:33:00",1221595,3.9,28.16,1.233,0.131,21.62,109.4301,23.43,24.43,24.22,0,111,13.18,24.26,350.2
"2009-09-08 01:33:30",1221596,4.095,28.94,0.983,0.19,21.64,109.431,23.43,24.43,24.24,0,111,13.17,24.27,350.9
"2009-09-08 01:34:00",1221597,3.987,28.54,0.847,0.199,21.69,109.4347,23.44,24.42,24.22,0,111,13.18,24.28,350.5
"2009-09-08 01:34:30",1221598,3.999,28.22,1.192,0.18,21.65,109.4341,23.44,24.43,24.25,0,111,13.18,24.27,350.2
"2009-09-08 01:35:00",1221599,4.063,28.62,1.244,0.355,21.66,109.4359,23.45,24.43,24.29,0,111,13.18,24.28,350.6
"2009-09-08 01:35:30",1221600,4.033,28.9,1.183,0.357,21.64,109.4359,23.45,24.42,24.34,0,111,13.18,24.28,350.9
"2009-09-08 01:36:00",1221601,3.84,29.06,1.173,0.199,21.67,109.4362,23.45,24.42,24.31,0,111,13.18,24.28,351.1
"2009-09-08 01:36:30",1221602,3.926,29.07,1.01,0.294,21.64,109.4363,23.45,24.42,24.28,0,111,13.19,24.28,351.1
"2009-09-08 01:37:00",1221603,3.991,28.14,1.11,0.233,21.61,109.4372,23.45,24.42,24.24,0,111,13.19,24.28,350.1
"2009-09-08 01:37:30",1221604,4.156,28.24,1.249,0.251,21.67,109.4363,23.45,24.4,24.22,0,111,13.19,24.28,350.2
"2009-09-08 01:38:00",1221605,4.376,27.96,1.19,0.312,21.66,109.4364,23.45,24.4,24.2,0,111,13.19,24.28,350.0
"2009-09-08 01:38:30",1221606,4.144,26.93,1.49,0.167,21.63,109.4346,23.44,24.39,24.13,0,111,13.19,24.28,348.9
"2009-09-08 01:39:00",1221607,4.16,26.23,1.349,0.163,21.63,109.433,23.44,24.4,24.13,0,111,13.19,24.27,348.2
"2009-09-08 01:39:30",1221608,4.11,26.65,1.22,0.181,21.65,109.4293,23.43,24.4,24.13,0,111,13.19,24.26,348.6
"2009-09-08 01:40:00",1221609,4.015,26.54,1.375,0.149,21.63,109.4299,23.43,24.39,24.16,0,111,13.19,24.26,348.5
"2009-09-08 01:40:30",1221610,4.044,27.46,1.612,0.283,21.65,109.4287,23.43,24.38,24.2,0,111,13.19,24.26,349.5
"2009-09-08 01:41:00",1221611,3.948,27.76,1.332,0.147,21.67,109.4281,23.43,24.37,24.21,0,111,13.19,24.26,349.8
"2009-09-08 01:41:30",1221612,3.922,27.62,0.788,0.142,21.65,109.4254,23.42,24.38,24.26,0,111,13.19,24.25,349.6
"2009-09-08 01:42:00",1221613,4.09,28.12,1.313,0.168,21.65,109.4199,23.4,24.39,24.27,0,111,13.19,24.24,350.1
"2009-09-08 01:42:30",1221614,4.192,28.14,1.084,0.225,21.62,109.4152,23.39,24.39,24.27,0,111,13.19,24.23,350.1
"2009-09-08 01:43:00",1221615,4.211,27.15,1.016,0.158,21.59,109.4122,23.38,24.37,24.28,0,111,13.19,24.22,349.1
"2009-09-08 01:43:30",1221616,4.146,27.26,1.323,0.218,21.61,109.4113,23.38,24.37,24.24,0,111,13.19,24.22,349.3
"2009-09-08 01:44:00",1221617,4.085,27.89,1.232,0.174,21.61,109.4105,23.38,24.37,24.24,0,111,13.19,24.21,349.9
"2009-09-08 01:44:30",1221618,3.962,26.03,1.184,0.156,21.61,109.4099,23.38,24.37,24.26,0,111,13.19,24.21,348.0
"2009-09-08 01:45:00",1221619,4.019,26.38,1.501,0.181,21.63,109.4102,23.38,24.37,24.27,0,111,13.19,24.21,348.4
"2009-09-08 01:45:30",1221620,3.899,24.19,1.497,0.17,21.61,109.4117,23.38,24.37,24.25,0,111,13.19,24.22,346.2
"2009-09-08 01:46:00",1221621,3.787,25.66,1.666,0.15,21.65,109.412,23.38,24.37,24.25,0,111,13.19,24.22,347.7
"2009-09-08 01:46:30",1221622,3.604,27.57,1.03,0.205,21.68,109.413,23.39,24.36,24.26,0,111,13.19,24.22,349.6
"2009-09-08 01:47:00",1221623,3.45,27.19,1.237,0.173,21.68,109.413,23.39,24.37,24.27,0,111,13.19,24.22,349.2
"2009-09-08 01:47:30",1221624,3.607,25.89,2.065,0.18,21.67,109.413,23.39,24.34,24.25,0,111,13.19,24.22,347.9
"2009-09-08 01:48:00",1221625,3.671,25.29,1.391,0.206,21.66,109.413,23.39,24.35,24.29,0,111,13.19,24.22,347.3